Probability
0 0 0 0 0 0 0 0 0 0 0 0 0 0 0 0 0 0 0 1 2 3 3 3 4 6 7 8 9 11 13 13 12 11 8 5 2 1 2 3 5 5 4 3
0 0 0 0 0 0 0 0 0 0 0 0 0 0 0 0 0 0 0 1 2 3 3 3 4 5 6 7 9 10 12 13 12 10 7 5 3 1 1 2 4 4 3 1
0 0 0 0 0 0 0 0 0 0 0 0 0 0 0 0 0 0 0 0 1 2 3 3 3 4 4 6 7 8 9 11 11 9 7 5 3 2 1 1 2 2 1 0
0 0 0 0 0 0 0 0 0 0 0 0 0 0 0 0 0 0 0 0 0 1 2 3 3 3 3 4 5 5 6 8 9 8 6 4 2 1 0 0 1 1 0 0
0 0 0 0 0 0 0 0 0 0 0 0 0 0 0 0 0 0 0 0 0 0 1 2 3 3 3 3 3 4 4 6 8 7 4 1 1 0 0 0 0 0 0 0
0 0 0 0 0 0 0 0 0 0 0 0 0 0 0 0 0 0 0 0 0 0 0 1 2 2 3 3 3 4 5 6 6 4 2 0 0 0 0 0 0 0 0 0
0 0 0 0 0 0 0 0 0 0 0 0 0 0 0 0 0 0 0 0 0 0 0 0 1 1 1 3 3 4 5 6 5 3 1 0 0 0 0 0 0 0 0 0
0 0 0 0 0 0 0 0 0 0 0 0 0 0 0 0 0 0 0 0 0 0 0 0 0 0 1 2 3 3 4 4 4 3 2 1 0 0 0 0 0 0 0 0
0 0 0 0 0 0 0 0 0 0 0 0 0 0 0 0 0 0 0 0 0 0 0 0 0 0 0 1 2 3 3 3 3 3 3 2 1 0 0 0 0 0 0 0
0 0 0 0 0 0 0 0 0 0 0 0 0 0 0 0 0 0 0 0 0 0 0 0 0 0 0 0 1 3 3 3 3 3 3 3 2 1 0 0 0 0 0 0
0 0 0 0 0 0 0 0 0 0 0 0 0 0 0 0 0 0 0 0 0 0 0 0 0 0 0 0 1 2 3 3 3 3 3 3 2 1 0 0 0 0 0 0
0 0 0 0 0 0 0 0 0 0 0 0 0 0 0 0 0 0 0 0 0 0 0 0 0 0 0 0 0 2 3 3 3 3 3 3 3 1 0 0 0 0 0 0
0 0 0 0 0 0 0 0 0 0 0 0 0 0 0 0 0 0 0 0 0 0 0 0 0 0 0 0 0 1 2 1 1 2 3 3 3 2 1 1 1 0 0 0
0 0 0 0 0 0 0 0 0 0 0 0 0 0 0 0 0 0 0 0 0 0 0 0 0 0 0 0 0 0 0 0 0 1 2 2 2 2 2 2 1 0 0 0
0 0 0 0 0 0 0 0 0 0 0 0 0 0 0 0 0 0 0 0 0 0 0 0 0 0 0 0 0 0 0 0 0 0 1 1 1 1 2 2 1 0 0 0
0 0 0 0 0 0 0 0 0 0 0 0 0 0 0 0 0 0 0 0 0 0 0 0 0 0 0 0 0 0 0 0 0 0 0 0 0 1 1 1 0 0 0 0
0 0 0 0 0 0 0 0 0 0 0 0 0 0 0 0 0 0 0 0 0 0 0 0 0 0 0 0 0 0 0 0 0 0 0 0 0 0 0 0 0 0 0 0
0 0 0 0 0 0 0 0 0 0 0 0 0 0 0 0 0 0 0 0 0 0 0 0 0 0 0 0 0 0 0 0 0 0 0 0 0 0 0 0 0 0 0 0
0 0 0 0 0 0 0 0 0 0 0 0 0 0 0 0 0 0 0 0 0 0 0 0 0 0 0 0 0 0 0 0 0 0 0 0 0 0 0 0 0 0 0 0
0 0 0 0 0 0 0 0 0 0 0 0 0 0 0 0 0 0 0 0 0 0 0 0 0 0 0 0 0 0 0 0 0 0 0 0 0 0 0 0 0 0 0 0
0 0 0 0 0 0 0 0 0 0 0 0 0 0 0 0 0 0 0 0 0 0 0 0 0 0 0 0 0 0 0 0 0 0 0 0 0 0 0 0 0 0 0 0
0 0 0 0 0 0 0 0 0 0 0 0 0 0 0 0 0 0 0 0 0 0 0 0 0 0 0 0 0 0 0 0 0 0 0 0 0 0 0 0 0 0 0 0
0 0 0 0 0 0 0 0 0 0 0 0 0 0 0 0 0 0 0 0 0 0 0 0 0 0 0 0 0 0 0 0 0 0 0 0 0 0 0 0 0 0 0 0
0 0 0 0 0 0 0 0 0 0 0 0 0 0 0 0 0 0 0 0 0 0 0 0 0 0 0 0 0 0 0 0 0 0 0 0 0 0 0 0 0 0 0 0
0 0 0 0 0 0 0 0 0 0 0 0 0 0 0 0 0 0 0 0 0 0 0 0 0 0 0 0 0 0 0 0 0 0 0 0 0 0 0 0 0 0 0 0
0 0 0 0 0 0 0 0 0 0 0 0 0 0 0 0 0 0 0 0 0 0 0 0 0 0 0 0 0 0 0 0 0 0 0 0 0 0 0 0 0 0 0 0
Wind_Speed
3 4 0 3 4 3 3 3 4 4 2 0 1 2 4 4 5 5 5 6 6 6 7 8 8 7 6 6 5 3 3 2 2 2 1 0 0 0 1 1 2 3 2 3
4 2 4 2 2 1 2 4 4 4 1 1 1 2 3 3 4 5 6 6 7 8 10 10 10 9 7 6 5 4 3 2 2 2 1 1 1 1 1 1 2 2 3 3
2 3 3 2 3 2 3 4 5 5 4 1 0 3 2 3 4 6 7 6 6 7 8 9 10 10 8 7 5 4 4 4 2 2 1 1 1 1 1 0 1 2 3 3
1 3 3 2 2 2 5 3 4 4 1 2 1 4 3 3 4 6 7 7 7 8 8 8 9 9 9 8 7 5 4 4 3 2 1 2 1 0 1 1 2 2 3 3
2 2 3 2 3 2 4 4 3 3 3 1 1 2 5 2 3 6 6 6 6 6 7 8 8 8 8 8 7 6 4 4 4 3 1 1 0 0 1 1 1 1 2 2
2 1 0 2 3 2 2 2 1 2 2 2 3 4 5 1 3 5 5 6 6 6 7 7 7 8 8 8 7 7 5 4 3 3 3 1 0 0 0 1 0 1 1 2
5 3 3 2 4 4 4 3 3 3 1 4 2 3 5 2 2 2 4 6 6 6 6 7 8 9 9 10 9 8 7 6 4 3 3 2 1 1 2 1 1 1 2 1
3 5 3 3 1 1 1 3 3 3 3 3 1 4 4 1 2 3 4 4 5 6 7 7 7 7 7 8 9 9 8 7 6 4 4 3 2 1 1 2 1 2 2 2
1 5 3 3 2 1 1 0 2 3 1 2 4 4 5 2 5 6 7 7 7 7 7 7 7 7 7 7 8 8 7 7 6 5 4 3 2 2 2 1 1 1 1 1
2 4 4 4 3 3 2 2 2 2 1 4 4 3 4 4 6 7 8 8 8 8 7 7 7 7 7 7 7 7 7 7 6 5 4 3 3 3 2 1 1 2 1 1
1 1 5 4 1 2 2 2 2 1 2 2 4 5 3 2 3 5 7 7 7 7 7 7 7 7 7 7 7 7 7 7 7 6 5 4 3 3 2 2 2 1 1 2
1 2 3 4 2 0 1 2 3 2 2 2 2 6 2 1 3 4 6 8 8 7 7 7 7 7 7 8 8 7 7 7 7 7 6 4 3 3 2 2 2 1 1 2
2 3 3 6 3 4 2 1 0 2 2 2 3 6 2 5 6 6 7 8 8 8 8 7 7 7 8 8 8 8 7 8 7 7 6 5 4 3 3 2 2 2 2 2
3 2 4 5 4 2 3 3 1 2 3 3 6 7 7 7 7 8 7 7 7 7 8 8 8 8 8 8 8 8 8 8 8 7 6 5 5 4 3 3 2 2 2 2
3 1 2 4 3 1 3 4 2 3 4 5 6 6 7 7 7 6 6 7 8 9 10 9 9 9 9 9 9 9 9 9 8 8 7 6 6 4 3 2 2 2 3 3
2 1 0 3 2 2 4 5 4 4 4 4 5 7 5 6 4 5 6 7 8 9 10 10 10 10 11 11 10 10 10 9 8 8 7 7 6 5 3 2 2 2 3 3
1 2 0 3 4 4 5 4 2 2 2 3 5 6 6 7 7 6 6 7 8 9 10 10 10 10 10 10 10 10 10 9 8 8 7 7 6 5 4 3 3 3 3 3
3 3 2 1 3 3 5 1 2 2 2 2 4 5 5 6 7 5 5 6 8 9 10 10 10 10 10 9 9 9 9 8 8 8 7 7 6 6 5 4 3 3 3 3
2 4 2 1 1 6 5 1 0 1 4 2 3 5 6 6 5 4 4 6 7 8 9 9 9 9 9 10 10 9 9 8 8 8 8 7 6 6 5 5 4 3 3 3
3 3 3 2 1 5 5 2 1 1 4 2 1 4 6 6 4 5 8 9 9 9 9 9 9 8 9 9 9 9 8 8 9 9 8 8 7 6 5 5 5 3 3 3
1 2 1 2 3 7 5 3 1 2 5 3 2 3 4 3 4 8 10 9 8 9 9 10 9 8 8 9 9 9 8 9 9 9 8 8 7 6 5 5 4 3 2 2
3 2 3 3 3 7 2 2 3 4 2 2 2 3 4 6 7 8 9 9 10 10 10 10 9 9 8 8 8 9 9 9 9 8 8 7 6 5 5 4 4 3 2 2
4 5 4 6 6 3 1 2 2 1 1 2 2 4 5 6 8 9 9 9 9 9 10 9 9 10 9 8 7 8 10 9 8 7 7 7 6 5 4 4 4 3 2 2
3 1 2 3 5 3 3 2 2 1 2 3 3 4 4 6 8 9 9 8 8 9 9 9 9 10 10 10 9 8 9 8 7 7 7 6 6 5 4 3 3 3 2 2
3 2 2 4 5 4 3 2 3 3 3 4 4 4 5 6 7 7 8 8 8 8 8 8 8 9 10 10 9 9 9 8 7 7 6 6 5 4 3 3 3 3 2 2
3 5 5 5 4 3 5 3 3 3 4 5 5 6 5 5 7 7 7 7 7 8 8 8 9 10 10 9 9 9 8 7 7 6 6 5 4 4 3 3 4 5 4 5
Wind_Direction
29 63 18 250 220 221 217 223 256 265 277 150 204 299 332 7 30 23 17 16 10 0 357 0 1 2 7 5 9 28 38 26 36 16 22 32 347 249 187 153 137 152 157 155
43 325 265 282 319 267 244 253 272 297 331 149 83 326 346 29 41 33 27 13 2 360 3 3 3 5 2 358 1 6 6 12 15 3 330 217 234 234 225 170 143 158 167 169
157 268 308 4 4 351 274 228 249 285 332 24 6 310 359 10 41 32 24 11 8 4 358 358 1 1 357 355 349 350 349 353 356 10 22 42 41 27 20 239 181 182 176 166
297 311 352 14 339 318 272 260 267 270 269 284 135 278 292 321 357 8 4 1 358 357 355 357 358 358 354 346 342 341 345 354 356 11 45 101 123 224 278 259 232 192 177 175
307 346 13 351 310 291 265 294 269 243 190 264 325 224 288 1 340 333 340 345 346 348 351 351 352 353 352 350 348 342 346 353 355 355 354 132 116 324 330 316 205 191 187 181
299 324 14 288 307 283 306 349 29 64 109 240 222 192 281 289 284 312 326 333 337 341 343 344 349 357 358 358 355 353 353 350 349 350 347 329 220 119 110 325 194 215 210 196
337 339 349 356 353 360 35 61 14 358 345 250 198 189 251 272 307 300 314 322 330 339 344 346 351 356 355 357 356 354 354 349 345 347 338 312 267 206 204 220 209 224 223 219
346 311 335 358 5 294 319 129 157 212 239 286 331 230 249 254 328 337 330 330 344 347 346 344 343 347 348 350 351 351 346 344 343 340 334 324 322 271 252 238 218 218 226 223
316 286 325 339 333 105 68 214 182 148 268 263 262 292 298 339 350 347 347 350 345 341 341 342 343 345 346 346 345 344 341 337 336 337 331 325 335 321 300 285 234 210 227 231
175 278 304 320 5 28 96 133 74 128 204 260 279 269 274 306 319 331 341 343 338 339 342 343 342 342 343 343 341 343 341 338 333 336 329 326 320 311 304 295 259 215 202 199
119 231 314 353 13 303 24 58 68 128 175 195 268 273 252 246 302 321 325 329 330 335 336 336 337 338 340 344 347 345 342 342 340 337 332 326 316 314 310 288 270 248 205 196
92 119 286 273 271 352 149 170 154 168 257 202 224 270 307 338 323 328 326 330 333 336 334 335 336 339 344 345 345 343 339 339 335 330 327 322 314 310 304 291 273 252 220 213
110 96 344 338 344 7 14 352 182 167 171 196 210 264 340 358 344 343 338 333 335 340 341 342 343 344 342 340 340 338 337 335 331 328 324 318 310 297 287 283 269 250 228 221
100 128 176 217 254 290 309 319 327 154 199 230 229 262 304 332 332 333 334 334 336 339 339 341 342 340 338 337 337 335 334 332 330 330 321 315 308 289 276 270 253 243 233 226
95 184 227 247 264 266 278 293 281 211 221 222 255 266 286 307 309 313 323 335 342 341 340 340 338 335 335 336 335 333 332 332 330 327 321 314 308 302 285 266 242 239 237 234
90 167 238 283 265 300 303 304 278 252 250 248 274 279 292 311 321 325 330 336 336 334 334 334 335 334 333 332 329 329 328 329 327 322 319 321 314 312 298 272 251 237 239 234
150 143 196 277 314 345 298 271 233 238 246 224 246 265 315 325 327 326 323 327 325 326 328 328 328 324 323 324 324 322 321 322 323 320 319 322 321 313 305 282 260 240 235 235
154 154 170 304 16 271 251 229 184 231 283 254 263 292 310 303 305 309 318 326 328 330 328 324 323 321 321 321 322 319 319 323 323 321 320 322 318 312 306 290 264 249 239 233
150 151 141 135 265 277 293 287 200 227 294 271 270 304 321 319 328 324 341 341 327 322 321 318 317 315 319 321 322 322 324 326 325 324 322 320 313 307 304 295 273 255 242 242
50 81 125 141 206 254 269 293 292 116 296 300 288 310 327 346 344 313 335 334 327 325 325 323 322 321 322 323 325 325 325 327 323 320 317 315 311 302 296 294 284 270 247 245
35 47 154 191 228 266 271 295 76 168 267 308 300 306 321 313 273 294 315 320 322 324 325 326 325 325 323 325 328 325 325 322 317 316 317 317 313 305 297 293 291 272 254 238
182 177 197 169 209 262 288 98 179 228 280 305 304 307 306 300 302 311 318 321 326 328 329 330 329 326 325 328 329 324 323 319 318 318 320 321 320 313 309 306 305 289 248 228
205 200 195 196 217 249 195 204 237 208 254 282 293 304 308 308 311 316 319 320 323 325 327 328 327 324 326 330 329 325 322 321 321 323 323 321 320 321 319 313 307 300 260 232
268 231 203 258 268 267 267 275 298 274 270 287 293 301 307 303 307 312 316 320 322 323 325 327 329 329 329 331 330 325 322 324 324 323 322 321 321 322 324 317 306 299 277 259
240 181 225 265 285 310 287 265 287 300 302 310 314 310 304 305 308 311 314 316 318 320 323 326 328 326 325 327 329 330 332 332 328 325 324 323 322 322 324 323 315 309 296 278
200 185 192 237 244 233 268 287 298 293 298 301 307 312 312 308 304 309 310 311 314 317 323 326 326 325 324 327 328 331 332 332 329 329 331 330 328 327 326 329 335 338 341 338